Regional Weather Roundup
Issued by NWS

Home | Current Version | Previous Version | Graphics & Text | Print | Product List | Glossary On
Versions: 1 2 3 4 5 6 7 8 9 10 11 12 13 14 15 16 17 18 19 20 21 22 23 24 25 26 27 28 29 30 31 32 33 34 35 36 37 38 39 40 41 42 43 44 45 46 47 48 49 50
000
ASUS43 KBIS 211210
RWRND
NORTH DAKOTA REGIONAL WEATHER ROUNDUP
NATIONAL WEATHER SERVICE EASTERN NORTH DAKOTA/GRAND FORKS ND
600 AM CST WED FEB 21 2018

  NOTE: "FAIR" INDICATES FEW OR NO CLOUDS BELOW 12,000 FEET WITH NO
  SIGNIFICANT WEATHER AND/OR OBSTRUCTIONS TO VISIBILITY.

NDZ001>003-009>011-017-211300-
...NORTHWEST NORTH DAKOTA...

CITY           SKY/WX    TMP DP  RH WIND       PRES   REMARKS
WILLISTON      FAIR     -10 -17  71 SW6       30.29R WCI -23
6HR MIN TEMP: -13; 6HR MAX TEMP:  -6;

MINOT          FAIR      -2 -12  62 SW10      30.26S WCI -19
MINOT AFB      FAIR      -4 -13  66 W13       30.25S WCI -23
6HR MIN TEMP:  -5; 6HR MAX TEMP:   0;

$$

NDZ018>021-031>035-040>046-211300-
...SOUTHWEST NORTH DAKOTA...

CITY           SKY/WX    TMP DP  RH WIND       PRES   REMARKS
BISMARCK       FAIR      -6 -14  68 S5        30.37R WCI -17
DICKINSON      FAIR      -6 -14  68 SW12      30.24R WCI -25
GARRISON         N/A     -9 -16  71 W7        30.28R WCI -24
HETTINGER      FAIR     -12 -18  74 W3        30.30R
$$

NDZ004>008-012>016-024-026-027-054-211300-
...NORTHEAST NORTH DAKOTA...

CITY           SKY/WX    TMP DP  RH WIND       PRES   REMARKS
GRAND FORKS    FAIR      -1  -8  72 SW8       30.36R WCI -15
GRAND FORKS AF CLEAR      1  -8  66 W9        30.33R WCI -14
DEVILS LAKE    FAIR      -7 -13  75 SW10      30.32R WCI -25
$$

NDZ022-023-025-028>030-036>039-047>053-211300-
...SOUTHEAST NORTH DAKOTA...

CITY           SKY/WX    TMP DP  RH WIND       PRES   REMARKS
JAMESTOWN      FAIR      -2 -11  65 W7        30.35R WCI -15
FARGO          FAIR      -3  -9  75 SW12      30.42R WCI -21
WAHPETON       FAIR      -8 -15  71 W12       30.46R WCI -27
$$




USA.gov is the U.S. government's official web portal to all federal, state and local government web resources and services.